This is the latest recevied weather packets stored in our database for station/object N2QKV-13. If no packets are shown the sender has not sent any weather packets the latest 10 day(s).
| Time | Temp. | Humidity | Pressure | Rain* | Wind** | Luminosity | Snow |
|---|---|---|---|---|---|---|---|
| 1777902004 | 18.33° C | 46% | 1014 hPa | 0 mm | - | - | - |
| 1777901704 | 17.78° C | 44% | 1014.1 hPa | 0 mm | - | - | - |
| 1777901403 | 17.78° C | 44% | 1014.2 hPa | 0 mm | - | - | - |
| 1777901104 | 17.78° C | 46% | 1014.2 hPa | 0 mm | - | - | - |
| 1777900804 | 17.78° C | 46% | 1014.3 hPa | 0 mm | - | - | - |
| 1777900504 | 17.22° C | 48% | 1014.3 hPa | 0 mm | - | - | - |
| 1777900203 | 17.22° C | 48% | 1014.3 hPa | 0 mm | - | - | - |
| 1777899904 | 16.67° C | 50% | 1014.3 hPa | 0 mm | - | - | - |
| 1777899604 | 16.67° C | 52% | 1014.3 hPa | 0 mm | - | - | - |
| 1777899303 | 16.11° C | 52% | 1014.4 hPa | 0 mm | - | - | - |
| 1777899004 | 16.11° C | 54% | 1014.5 hPa | 0 mm | - | - | - |
| 1777898704 | 15.56° C | 55% | 1014.4 hPa | 0 mm | - | - | - |
| 1777898403 | 15.56° C | 57% | 1014.6 hPa | 0 mm | - | - | - |
| 1777898103 | 15° C | 58% | 1014.6 hPa | 0 mm | - | - | - |
| 1777897804 | 15° C | 60% | 1014.5 hPa | 0 mm | - | - | - |
| 1777897504 | 14.44° C | 61% | 1014.7 hPa | 0 mm | - | - | - |
| 1777897203 | 14.44° C | 63% | 1014.7 hPa | 0 mm | - | - | - |
| 1777896904 | 13.89° C | 63% | 1014.8 hPa | 0 mm | - | - | - |
| 1777896604 | 13.89° C | 64% | 1014.7 hPa | 0 mm | - | - | - |
| 1777896304 | 13.33° C | 66% | 1014.9 hPa | 0 mm | - | - | - |
| 1777896004 | 12.78° C | 68% | 1015 hPa | 0 mm | - | - | - |
| 1777895704 | 12.78° C | 68% | 1014.9 hPa | 0 mm | - | - | - |
| 1777895404 | 12.22° C | 69% | 1014.9 hPa | 0 mm | - | - | - |
| 1777895103 | 12.22° C | 70% | 1014.9 hPa | 0 mm | - | - | - |
| 1777894804 | 11.67° C | 71% | 1015 hPa | 0 mm | - | - | - |
* Rain latest hour (hover to see other rain measurements)
** Current wind speed in m/s (hover to see current wind gust speed)